When you browse on this site, cookies collect data to enhance your experience and personalize the content and advertising you see.
Visit our Privacy Policy to learn more. By continuing to use the site, you agree to this use of cookies and data.
  • In Latvia
  • List of Countries
  • For 7 days
  • Water Temperature
  • Satellite Maps
  • Weather Map
  • Weather Widgets
  • user-avatar
    Login

    Hourly Weather Satif

    Today, 20 May, Monday

    Time Temperature Precipitation Wind Pressure Humidity
    00:00 +10°C° 0 mm 2 mps 668 mmHg 67%
    01:00 +10°C° 0 mm 1 mps 668 mmHg 69%
    02:00 +10°C° 0 mm 1 mps 668 mmHg 70%
    03:00 +9°C° 0 mm 1 mps 668 mmHg 72%
    04:00 +10°C° 0 mm 1 mps 668 mmHg 69%
    05:00 +10°C° 0 mm 1 mps 669 mmHg 66%
    06:00 +11°C° 0 mm 1 mps 669 mmHg 60%
    07:00 +12°C° 0 mm 1 mps 670 mmHg 55%
    08:00 +12°C° 0 mm 0 mps 670 mmHg 49%
    09:00 +14°C° 0 mm 0 mps 671 mmHg 44%
    10:00 +15°C° 0 mm 0 mps 671 mmHg 39%
    11:00 +16°C° 0 mm 0 mps 671 mmHg 35%
    12:00 +19°C° 0 mm 1 mps 672 mmHg 30%
    13:00 +20°C° 0 mm 1 mps 671 mmHg 29%
    14:00 +19°C° 0 mm 2 mps 671 mmHg 28%
    15:00 +20°C° 0 mm 2 mps 671 mmHg 26%
    16:00 +19°C° 0 mm 3 mps 671 mmHg 31%
    17:00 +18°C° 0 mm 3 mps 671 mmHg 36%
    18:00 +17°C° 0 mm 4 mps 670 mmHg 41%
    19:00 +16°C° 0 mm 3 mps 670 mmHg 47%
    20:00 +13°C° 0 mm 3 mps 671 mmHg 53%
    21:00 +13°C° 0 mm 2 mps 671 mmHg 58%
    22:00 +13°C° 0 mm 2 mps 671 mmHg 60%
    23:00 +13°C° 0 mm 2 mps 670 mmHg 62%

    Tomorrow, 21 May, Tuesday

    Time Temperature Precipitation Wind Pressure Humidity
    00:00 +12°C° 0 mm 2 mps 670 mmHg 63%
    01:00 +13°C° 0 mm 2 mps 670 mmHg 63%
    02:00 +13°C° 0 mm 2 mps 670 mmHg 63%
    03:00 +14°C° 0 mm 1 mps 670 mmHg 63%
    04:00 +14°C° 0 mm 1 mps 670 mmHg 61%
    05:00 +14°C° 0 mm 1 mps 670 mmHg 59%
    06:00 +15°C° 0 mm 1 mps 670 mmHg 57%
    07:00 +15°C° 0.3 mm 2 mps 671 mmHg 56%
    08:00 +16°C° 0.3 mm 3 mps 671 mmHg 54%
    09:00 +15°C° 0.3 mm 4 mps 672 mmHg 53%
    10:00 +16°C° 1 mm 3 mps 672 mmHg 56%
    11:00 +14°C° 1 mm 3 mps 672 mmHg 59%
    12:00 +15°C° 1 mm 2 mps 672 mmHg 62%
    13:00 +15°C° 0.7 mm 2 mps 671 mmHg 63%
    14:00 +16°C° 0.7 mm 2 mps 671 mmHg 64%
    15:00 +16°C° 0.7 mm 2 mps 671 mmHg 64%
    16:00 +15°C° 0.4 mm 2 mps 671 mmHg 69%
    17:00 +15°C° 0.4 mm 2 mps 671 mmHg 73%
    18:00 +14°C° 0.4 mm 2 mps 671 mmHg 77%
    19:00 +14°C° 0.3 mm 2 mps 671 mmHg 80%
    20:00 +13°C° 0.3 mm 2 mps 671 mmHg 83%
    21:00 +13°C° 0.3 mm 2 mps 671 mmHg 86%
    22:00 +12°C° 0.4 mm 2 mps 671 mmHg 87%
    23:00 +12°C° 0.4 mm 2 mps 671 mmHg 89%

    Day after tomorrow, 22 May, Wednesday

    Time Temperature Precipitation Wind Pressure Humidity
    00:00 +11°C° 0.4 mm 1 mps 671 mmHg 90%
    01:00 +11°C° 0.7 mm 1 mps 671 mmHg 90%
    02:00 +11°C° 0.7 mm 1 mps 670 mmHg 90%
    03:00 +11°C° 0.7 mm 1 mps 670 mmHg 90%
    04:00 +11°C° 0.7 mm 1 mps 671 mmHg 88%
    05:00 +12°C° 0.7 mm 1 mps 671 mmHg 86%
    06:00 +12°C° 0.7 mm 1 mps 671 mmHg 84%
    07:00 +14°C° 0.3 mm 1 mps 672 mmHg 76%
    08:00 +15°C° 0.3 mm 1 mps 673 mmHg 68%
    09:00 +18°C° 0.3 mm 1 mps 673 mmHg 60%
    10:00 +18°C° 0.4 mm 2 mps 673 mmHg 55%
    11:00 +19°C° 0.4 mm 2 mps 673 mmHg 51%
    12:00 +20°C° 0.4 mm 3 mps 674 mmHg 46%
    13:00 +20°C° 0.5 mm 3 mps 673 mmHg 47%
    14:00 +20°C° 0.5 mm 3 mps 673 mmHg 48%
    15:00 +20°C° 0.5 mm 4 mps 673 mmHg 49%
    16:00 +19°C° 0.2 mm 3 mps 673 mmHg 53%
    17:00 +18°C° 0.2 mm 3 mps 673 mmHg 57%
    18:00 +17°C° 0.2 mm 3 mps 673 mmHg 61%
    19:00 +16°C° 0 mm 2 mps 673 mmHg 68%
    20:00 +15°C° 0 mm 2 mps 673 mmHg 74%
    21:00 +14°C° 0 mm 1 mps 674 mmHg 80%
    22:00 +13°C° 0 mm 1 mps 673 mmHg 82%
    23:00 +13°C° 0 mm 1 mps 673 mmHg 84%

    23 May, Thursday

    Time Temperature Precipitation Wind Pressure Humidity
    00:00 +12°C° 0 mm 1 mps 673 mmHg 86%
    01:00 +11°C° 0 mm 0 mps 673 mmHg 87%
    02:00 +11°C° 0 mm 0 mps 672 mmHg 87%
    03:00 +10°C° 0 mm 0 mps 672 mmHg 88%
    04:00 +11°C° 0 mm 0 mps 673 mmHg 82%
    05:00 +12°C° 0 mm 0 mps 673 mmHg 77%
    06:00 +13°C° 0 mm 0 mps 673 mmHg 71%
    07:00 +14°C° 0 mm 0 mps 674 mmHg 63%
    08:00 +16°C° 0 mm 0 mps 675 mmHg 54%
    09:00 +19°C° 0 mm 1 mps 675 mmHg 45%
    10:00 +20°C° 0 mm 1 mps 675 mmHg 41%
    11:00 +21°C° 0 mm 1 mps 675 mmHg 36%
    12:00 +21°C° 0 mm 2 mps 675 mmHg 31%
    13:00 +23°C° 0 mm 2 mps 675 mmHg 32%
    14:00 +22°C° 0 mm 3 mps 675 mmHg 33%
    15:00 +22°C° 0 mm 3 mps 674 mmHg 34%
    16:00 +21°C° 0 mm 4 mps 674 mmHg 42%
    17:00 +20°C° 0 mm 4 mps 674 mmHg 49%
    18:00 +19°C° 0 mm 4 mps 674 mmHg 57%
    19:00 +18°C° 0 mm 3 mps 674 mmHg 63%
    20:00 +17°C° 0 mm 2 mps 674 mmHg 70%
    21:00 +16°C° 0 mm 2 mps 674 mmHg 76%
    22:00 +15°C° 0 mm 1 mps 673 mmHg 78%
    23:00 +15°C° 0 mm 1 mps 673 mmHg 79%

    24 May, Friday

    Time Temperature Precipitation Wind Pressure Humidity
    00:00 +14°C° 0 mm 1 mps 673 mmHg 81%
    01:00 +14°C° 0 mm 1 mps 672 mmHg 82%
    02:00 +13°C° 0 mm 1 mps 672 mmHg 83%
    03:00 +13°C° 0 mm 1 mps 672 mmHg 84%
    04:00 +14°C° 0 mm 1 mps 672 mmHg 80%
    05:00 +14°C° 0 mm 0 mps 672 mmHg 76%
    06:00 +14°C° 0 mm 0 mps 673 mmHg 72%
    07:00 +18°C° 0 mm 1 mps 673 mmHg 64%
    08:00 +19°C° 0 mm 1 mps 674 mmHg 57%
    09:00 +21°C° 0 mm 1 mps 674 mmHg 50%
    10:00 +21°C° 0 mm 2 mps 674 mmHg 44%
    11:00 +23°C° 0 mm 2 mps 674 mmHg 39%
    12:00 +24°C° 0 mm 2 mps 674 mmHg 34%
    13:00 +24°C° 0 mm 3 mps 674 mmHg 33%
    14:00 +24°C° 0 mm 3 mps 674 mmHg 32%
    15:00 +23°C° 0 mm 4 mps 674 mmHg 31%
    16:00 +22°C° 0 mm 4 mps 673 mmHg 35%
    17:00 +21°C° 0 mm 4 mps 673 mmHg 38%
    18:00 +19°C° 0 mm 4 mps 673 mmHg 42%
    19:00 +18°C° 0 mm 3 mps 673 mmHg 47%
    20:00 +17°C° 0 mm 2 mps 673 mmHg 52%
    21:00 +15°C° 0 mm 1 mps 673 mmHg 57%
    22:00 +14°C° 0 mm 0 mps 672 mmHg 57%
    23:00 +14°C° 0 mm 0 mps 672 mmHg 56%

    25 May, Saturday

    Time Temperature Precipitation Wind Pressure Humidity
    00:00 +13°C° 0 mm 0 mps 672 mmHg 55%
    01:00 +13°C° 0 mm 0 mps 671 mmHg 51%
    02:00 +14°C° 0 mm 1 mps 671 mmHg 47%
    03:00 +14°C° 0 mm 1 mps 671 mmHg 42%
    04:00 +15°C° 0 mm 1 mps 671 mmHg 39%
    05:00 +15°C° 0 mm 1 mps 671 mmHg 35%
    06:00 +16°C° 0 mm 2 mps 672 mmHg 31%
    07:00 +18°C° 0 mm 3 mps 672 mmHg 32%
    08:00 +19°C° 0 mm 3 mps 672 mmHg 32%
    09:00 +20°C° 0 mm 4 mps 673 mmHg 32%
    10:00 +21°C° 0 mm 5 mps 673 mmHg 32%
    11:00 +21°C° 0 mm 5 mps 673 mmHg 32%
    12:00 +22°C° 0 mm 6 mps 673 mmHg 33%
    13:00 +22°C° 0 mm 6 mps 672 mmHg 35%
    14:00 +21°C° 0 mm 6 mps 672 mmHg 38%
    15:00 +21°C° 0 mm 7 mps 672 mmHg 41%
    16:00 +19°C° 0 mm 6 mps 672 mmHg 45%
    17:00 +17°C° 0 mm 5 mps 672 mmHg 49%
    18:00 +17°C° 0 mm 4 mps 672 mmHg 53%
    19:00 +16°C° 0 mm 3 mps 672 mmHg 56%
    20:00 +15°C° 0 mm 2 mps 672 mmHg 60%
    21:00 +14°C° 0 mm 1 mps 672 mmHg 63%
    22:00 +14°C° 0 mm 1 mps 672 mmHg 64%
    23:00 +14°C° 0 mm 1 mps 672 mmHg 65%
    Show more